Find Starlink 5609

NORAD ID: 55348 Int'l Des: 2023-013 Owner: SPXS Country: US Constellation: starlink operational
LEOCIRCULAR

当前视图

正在加载3D地球...

About Starlink 5609

Starlink 5609 (NORAD 55348) is a starlink constellation satellite (v1.5) launched Jan 26, 2023 by SPXS of US. It operates in LEO, CIRCULAR orbit with a mass of 305.00 kg.

关于 Starlink 5609

正在加载描述...

即将过境

Passes for default location (London). Set your location on the main map for personalized predictions.

高度历史

Loading altitude history...

两行轨道根数

1 55348U 23013T 26169.17582307 -.00000009 00000-0 92034-5 0 9994
2 55348 43.0038 95.7239 0000858 268.1576 91.9178 15.27575014187048
Epoch: Jun 18, 2026 • Age: 11 hours

当前状态

高度 484.5 km
速度 7.62 km/s
星下点 -9.96°S, 51.62°W
发射日期 Jan 26, 2023
运行时间 3.3 years
类型 internet

技术详情

分类 Payload
质量 305.00 kg
干质量 290.00 kg
总质量 305.00 kg
长度 0.20 m
直径 2.80 m
跨度 9.00 m
形状 Box + pan
制造商 SPXS
平台类型 Starlink
阶段状态 In Orbit
所有者/国家 SPXS/US

Most Searched